TimeCST,TemperatureF,Dew PointF,Humidity,Sea Level PressureIn,VisibilityMPH,Wind Direction,Wind SpeedMPH,Gust SpeedMPH,PrecipitationIn,Events,Conditions,WindDirDegrees,DateUTC
12:53 AM,42.1,39.9,92,29.95,10.0,North,15.0,-,N/A,,Overcast,350,2013-11-26 06:53:00
1:53 AM,42.1,39.9,92,29.95,10.0,NNW,11.5,-,N/A,,Overcast,330,2013-11-26 07:53:00
2:53 AM,41.0,39.0,93,29.98,10.0,NNW,20.7,29.9,N/A,,Overcast,330,2013-11-26 08:53:00
3:48 AM,41.0,37.4,87,30.00,6.0,North,12.7,-,0.05,Rain,Rain,350,2013-11-26 09:48:00
3:53 AM,41.0,37.9,89,29.99,8.0,NNW,19.6,23.0,0.06,Rain,Rain,340,2013-11-26 09:53:00
4:11 AM,41.0,37.4,87,30.01,6.0,NNW,11.5,-,0.04,Rain,Rain,340,2013-11-26 10:11:00
4:20 AM,41.0,37.4,87,30.02,5.0,NNW,11.5,-,0.07,Rain,Heavy Rain,330,2013-11-26 10:20:00
4:37 AM,41.0,39.2,93,30.02,6.0,NW,13.8,-,0.14,Rain,Heavy Rain,320,2013-11-26 10:37:00
4:53 AM,41.0,39.0,93,30.04,6.0,NW,12.7,21.9,0.20,Rain,Rain,310,2013-11-26 10:53:00
5:53 AM,41.0,39.0,93,30.03,6.0,NNW,11.5,-,0.13,Rain,Rain,330,2013-11-26 11:53:00
6:53 AM,41.0,39.0,93,30.03,7.0,NNW,13.8,-,0.11,Rain,Rain,340,2013-11-26 12:53:00
7:07 AM,41.0,39.2,93,30.05,7.0,NNW,9.2,-,0.02,Rain,Light Rain,340,2013-11-26 13:07:00
7:34 AM,41.0,37.4,87,30.02,6.0,North,13.8,-,0.06,Rain,Light Rain,360,2013-11-26 13:34:00
7:53 AM,41.0,37.9,89,29.99,10.0,North,13.8,-,0.07,Rain,Light Rain,360,2013-11-26 13:53:00
8:53 AM,41.0,37.9,89,30.04,10.0,NW,16.1,-,0.01,,Overcast,320,2013-11-26 14:53:00
9:53 AM,41.0,37.9,89,30.04,10.0,NNW,18.4,24.2,N/A,,Overcast,330,2013-11-26 15:53:00
10:25 AM,42.8,37.4,81,30.06,10.0,NNW,17.3,24.2,N/A,,Overcast,330,2013-11-26 16:25:00
10:53 AM,41.0,37.9,89,30.06,9.0,NW,11.5,-,0.00,Rain,Light Rain,320,2013-11-26 16:53:00
11:18 AM,41.0,39.2,93,30.06,2.5,NW,11.5,-,0.00,Rain,Rain,310,2013-11-26 17:18:00
11:26 AM,41.0,39.2,93,30.06,1.8,NW,12.7,-,0.02,Rain,Heavy Rain,310,2013-11-26 17:26:00
11:34 AM,42.8,39.2,87,30.06,2.0,WNW,15.0,20.7,0.05,Rain,Rain,300,2013-11-26 17:34:00
11:38 AM,42.8,39.2,87,30.06,3.0,NW,15.0,-,0.06,Rain,Rain,310,2013-11-26 17:38:00
11:53 AM,42.1,39.0,89,30.05,6.0,NW,13.8,23.0,0.08,Rain,Light Rain,320,2013-11-26 17:53:00
12:00 PM,42.8,39.2,87,30.04,4.0,NW,16.1,21.9,0.01,Rain,Light Rain,320,2013-11-26 18:00:00
12:05 PM,42.8,39.2,87,30.04,5.0,NW,13.8,21.9,0.01,Rain,Light Rain,310,2013-11-26 18:05:00
12:53 PM,43.0,39.0,86,30.01,7.0,NNW,18.4,25.3,0.02,Rain,Light Rain,330,2013-11-26 18:53:00
1:14 PM,42.8,39.2,87,30.01,7.0,NNW,19.6,27.6,0.00,,Overcast,330,2013-11-26 19:14:00
1:36 PM,42.8,39.2,87,30.01,7.0,NW,18.4,28.8,0.00,Rain,Light Rain,320,2013-11-26 19:36:00
1:45 PM,42.8,39.2,87,30.02,4.0,NNW,16.1,23.0,0.00,Rain,Rain,330,2013-11-26 19:45:00
1:53 PM,42.1,39.0,89,30.02,4.0,NW,15.0,21.9,0.01,Rain,Rain,320,2013-11-26 19:53:00
2:00 PM,42.8,39.2,87,30.02,5.0,NW,13.8,25.3,0.01,Rain,Rain,320,2013-11-26 20:00:00
2:07 PM,42.8,39.2,87,30.03,5.0,NW,17.3,24.2,0.02,Rain,Rain,320,2013-11-26 20:07:00
2:53 PM,42.1,39.0,89,30.04,5.0,NW,13.8,23.0,0.08,Rain,Rain,320,2013-11-26 20:53:00
3:53 PM,41.0,37.9,89,30.06,5.0,NW,13.8,23.0,0.09,Rain,Rain,310,2013-11-26 21:53:00
4:00 PM,41.0,37.4,87,30.07,6.0,NW,16.1,23.0,0.01,Rain,Rain,320,2013-11-26 22:00:00
4:22 PM,41.0,37.4,87,30.08,8.0,NW,15.0,-,0.04,Rain,Light Rain,310,2013-11-26 22:22:00
4:34 PM,41.0,37.4,87,30.08,10.0,NW,15.0,-,0.05,Rain,Light Rain,310,2013-11-26 22:34:00
4:53 PM,41.0,39.0,93,30.10,10.0,NW,12.7,20.7,0.05,Rain,Light Rain,320,2013-11-26 22:53:00
5:32 PM,41.0,37.4,87,30.12,10.0,NW,15.0,23.0,0.00,Rain,Light Rain,320,2013-11-26 23:32:00
5:53 PM,41.0,37.0,86,30.14,10.0,NW,13.8,26.5,0.00,Rain,Light Rain,310,2013-11-26 23:53:00
6:04 PM,39.2,37.4,93,30.14,10.0,NW,15.0,21.9,0.00,Rain,Light Rain,320,2013-11-27 00:04:00
6:53 PM,41.0,37.9,89,30.17,10.0,NW,15.0,23.0,0.02,Rain,Light Rain,320,2013-11-27 00:53:00
7:51 PM,41.0,39.2,93,30.19,9.0,NW,11.5,-,0.01,Rain,Light Rain,320,2013-11-27 01:51:00
7:53 PM,41.0,39.0,93,30.19,9.0,NW,12.7,-,0.01,Rain,Light Rain,320,2013-11-27 01:53:00
8:53 PM,42.1,39.0,89,30.21,10.0,NW,10.4,-,0.00,,Overcast,310,2013-11-27 02:53:00
9:53 PM,42.1,39.9,92,30.21,10.0,NW,8.1,-,N/A,,Overcast,310,2013-11-27 03:53:00
10:53 PM,43.0,39.0,86,30.22,10.0,NW,8.1,-,N/A,,Mostly Cloudy,310,2013-11-27 04:53:00
11:53 PM,41.0,37.9,89,30.22,10.0,NW,8.1,-,N/A,,Clear,310,2013-11-27 05:53:00